Home   Weather   Skopje   Past weeks

Flag for Macedonia, Republic of Past Weather in Skopje, Macedonia, Republic of — Yesterday and Last 2 Weeks

Now
54 °F

Sunny.


Feels Like: 54 °F
Forecast: 47 / 80 °F
Wind: No wind

Location: Skopje-Petrovec

Current Time: Oct 1, 2016 at 9:05:47 AM

Latest Report: Oct 1, 2016 at 8:30 AM


Visibility: 10 mi

Pressure: 30.12 "Hg

Humidity: 77%

Dew Point: 46 °F

Location of SkopjeLocation

Past Weather in Skopje — Graph

°F

Skopje Temperature Yesterday

Maximum temperature yesterday: 79 °F (at 3:00 PM)
Minimum temperature yesterday: 41 °F (at 6:00 AM)
Average temperature yesterday: 59 °F

High & Low Weather Summary for the Past Weeks

 TemperatureHumidityPressure
High88 °F (Sep 17, 4:00 PM)100% (Sep 19, 6:30 AM)30.45 "Hg (Sep 19, 6:30 AM)
Low39 °F (Sep 23, 6:30 AM)29% (Sep 23, 3:30 PM)29.65 "Hg (Sep 19, 3:30 PM)
Average61 °F67%30.11 "Hg
* Reported Sep 16 8:00 AM — Oct 1 8:00 AM, Skopje, Weather by CustomWeather, © 2016

Note: Actual official high and low records may vary slightly from our data, if they occured in-between our weather recording intervals... More about our weather records

Advertising

Skopje Weather History for the Previous 24 Hours

Scroll right to see more
 ConditionsComfort  
Time TempWeatherWind HumidityBarometerVisibility
8:00 AM
Sat, Oct 1
50 °FSunny.No wind88%30.12 "Hg10 mi
7:30 AM45 °FSunny.No wind93%30.12 "Hg10 mi
7:00 AM45 °FSunny.No wind87%30.12 "Hg10 mi
6:30 AM45 °FSunny.2 mph93%30.12 "Hg10 mi
6:00 AM46 °FClear.No wind87%30.09 "Hg10 mi
5:30 AM46 °FClear.3 mph87%30.12 "Hg10 mi
5:00 AM45 °FClear.No wind93%30.12 "Hg10 mi
4:30 AM45 °FClear.No wind93%30.12 "Hg10 mi
3:30 AM46 °FClear.No wind87%30.12 "Hg10 mi
3:00 AM46 °FClear.No wind87%30.12 "Hg10 mi
2:30 AM46 °FClear.No wind87%30.12 "Hg10 mi
1:30 AM48 °FClear.No wind87%30.12 "Hg10 mi
1:00 AM50 °FClear.No wind88%30.12 "Hg10 mi
12:30 AM50 °FClear.No wind88%30.15 "Hg10 mi
12:00 AM50 °FClear.No wind88%30.15 "Hg10 mi
11:30 PM
Fri, Sep 30
52 °FClear.No wind88%30.15 "Hg10 mi
11:00 PM54 °FClear.No wind82%30.12 "Hg10 mi
10:30 PM54 °FClear.2 mph82%30.15 "Hg10 mi
10:00 PM55 °FClear.3 mph77%30.12 "Hg10 mi
9:30 PM55 °FClear.No wind77%30.12 "Hg10 mi
9:00 PM57 °FClear.No wind77%30.12 "Hg10 mi
8:30 PM57 °FClear.No wind77%30.12 "Hg10 mi
8:00 PM61 °FClear.No wind72%30.12 "Hg10 mi
7:30 PM61 °FClear.No wind77%30.12 "Hg10 mi
7:00 PM64 °FClear.1 mph68%30.09 "Hg10 mi
6:30 PM66 °FClear.2 mph60%30.09 "Hg10 mi
6:00 PM72 °FSunny.1 mph50%30.09 "Hg10 mi
5:30 PM77 °FSunny.2 mph36%30.09 "Hg10 mi
5:00 PM77 °FSunny.2 mph36%30.09 "Hg10 mi
4:30 PM79 °FSunny.1 mph32%30.09 "Hg10 mi
4:00 PM79 °FSunny.1 mph32%30.09 "Hg10 mi
3:30 PM79 °FSunny.1 mph32%30.12 "Hg10 mi
3:00 PM79 °FSunny.1 mph32%30.12 "Hg10 mi
2:30 PM77 °FSunny.2 mph34%30.12 "Hg10 mi
2:00 PM77 °FSunny.No wind36%30.15 "Hg10 mi
1:30 PM75 °FSunny.3 mph39%30.15 "Hg10 mi
1:00 PM73 °FSunny.No wind41%30.18 "Hg10 mi
12:30 PM70 °FSunny.No wind46%30.18 "Hg10 mi
12:00 PM70 °FSunny.No wind46%30.21 "Hg10 mi
11:30 AM66 °FSunny.No wind52%30.21 "Hg10 mi
11:00 AM64 °FSunny.No wind56%30.21 "Hg10 mi
10:30 AM61 °FSunny.No wind63%30.24 "Hg10 mi
10:00 AM59 °FSunny.No wind63%30.24 "Hg10 mi
9:30 AM57 °FSunny.No wind67%30.24 "Hg10 mi
Weather by CustomWeather, © 2016

See weather overviewHow to use our weather pages